Simultaneous Nadir Overpasses (SNOs) Predictions

Prediction of SNOs between LANDSAT-8 and NOAA-19 Satellite Orbit:

Table of predicted SNOs for the next 14.0 days since TLE Epoch: 2/23/2019
Index Date (LANDSAT-8) Time (LANDSAT-8) Lat,Lon (LANDSAT-8) SZA (LANDSAT-8 ) Date (NOAA-19) Time (NOAA-19) Lat,Lon (NOAA-19) SZA (NOAA-19 ) Distance(km) Time Diff (sec)
1 02/24/2019 19:47:51 -78.51, 80.90 91.85 02/24/2019 19:47:58 -78.48, 80.88 91.89 4.08 7
2 02/27/2019 01:21:34 78.50, 177.40 87.31 02/27/2019 01:21:23 78.52, 177.31 87.33 3.12 11
3 03/01/2019 06:55:18 -78.50, -86.02 93.53 03/01/2019 06:54:56 -78.52, -86.01 93.51 2.37 22
4 03/01/2019 07:44:44 78.49, 81.56 86.45 03/01/2019 07:45:51 78.49, 81.51 86.46 1.33 67
5 03/03/2019 12:29:00 78.52, 10.65 85.65 03/03/2019 12:28:20 78.52, 10.74 85.65 2.13 40
6 03/03/2019 13:18:28 -78.49, 178.14 94.40 03/03/2019 13:19:24 -78.50, 178.12 94.38 0.68 56
7 03/05/2019 18:02:44 -78.52, 107.22 95.20 03/05/2019 18:01:53 -78.54, 107.28 95.19 2.93 51
8 03/05/2019 18:52:10 78.51, -85.21 84.77 03/05/2019 18:52:49 78.52, -85.30 84.79 2.51 39
9 03/07/2019 23:36:26 78.53,-156.16 83.96 03/07/2019 23:35:18 78.56,-156.07 83.97 3.43 68




NCC Satellite Simultaneous Nadir Overpasses (SNOs) Prediction Service
